Regional Weather Roundup
Issued by NWS Cleveland, OH

Home | Current Version | Previous Version | Graphics & Text | Print | Product List | Glossary On
Versions: 1 2 3 4 5 6 7 8 9 10 11 12 13 14 15 16 17 18 19 20 21 22 23 24 25 26 27 28 29 30 31 32 33 34 35 36 37 38 39 40 41 42 43 44 45 46 47 48 49 50
000
ASUS41 KCLE 241702
RWRCLE
OHIO REGIONAL WEATHER ROUNDUP
NATIONAL WEATHER SERVICE CLEVELAND, OH
100 PM EDT FRI MAR 24 2017

NOTE: "FAIR" INDICATES FEW OR NO CLOUDS BELOW 12,000 FEET WITH NO
SIGNIFICANT WEATHER AND/OR OBSTRUCTIONS TO VISIBILITY.

OHZ001>008-015>018-024>027-034-035-043-044-241800-
   NORTHWEST OHIO

CITY           SKY/WX    TMP DP  RH WIND       PRES   REMARKS
DEFIANCE       CLOUDY    66  51  58 SW23G37   30.03S
FINDLAY        SUNNY     68  50  52 SW25G36   30.06F
TOLEDO EXPRESS CLOUDY    66  51  58 SW23G30   30.02F
TOLEDO EXEC    CLOUDY    67  52  58 SW24G33   30.03F
LIMA           SUNNY     66  52  60 SW25G37   30.08F
$$

OHZ009>014-019>023-028>033-038-089-241800-
   NORTHEAST OHIO

CITY           SKY/WX    TMP DP  RH WIND       PRES   REMARKS
CLE-HOPKINS    CLOUDY    67  49  52 SW15G29   30.08F
CLE-LAKEFRONT  CLOUDY    67  49  52 SW18G30   30.04S
CUY CO. ARPT   CLOUDY    68  52  56 SW18G29   30.06S
LORAIN-ELYRIA  MOSUNNY   63  49  60 SW21G31   30.06F
ASHTABULA      PTSUNNY   64  46  52 SW17G24   30.06F
AKRON-CANTON   CLOUDY    65  48  54 SW21G28   30.12F
WOOSTER        MOSUNNY   66  50  56 SW23G31   30.10F
MANSFIELD      CLOUDY    64  49  57 SW20G31   30.11F
YOUNGSTOWN     CLOUDY    64  47  53 SW22G31   30.10F
$$

OHZ042-051>053-060>062-070>072-077>081-241800-
  SOUTHWEST OHIO

CITY           SKY/WX    TMP DP  RH WIND       PRES   REMARKS
CINC-COVINGTON PTSUNNY   68  51  54 S17G24    30.20F
CINC-LUNKEN    MOSUNNY   70  54  56 SW16      30.21F
HAMILTON       PTSUNNY   71  51  49 SW9G18    30.20F
DAYTON         CLOUDY    65  50  58 SW18G30   30.15F
WRIGHT-PAT AFB NOT AVBL
DAYTON GENERAL MOSUNNY   65  49  56 SW18G29   30.17F
WILMINGTON     CLOUDY    65  51  60 S21       30.19F
$$

OHZ036-037-039>041-045>050-054>059-063>069-073>076-082>088-241800-
  CENTRAL AND SOUTHEAST OHIO

CITY           SKY/WX    TMP DP  RH WIND       PRES   REMARKS
COLUMBUS       CLOUDY    67  49  52 SW18G28   30.17F
OSU AIRPORT    LGT RAIN  66  51  58 SW21G32   30.15F
BOLTON FIELD   SUNNY     64  52  63 SW25G32   30.18F
RICKENBACK AFB MOSUNNY   64  49  59 SW21G29   30.18F
NEWARK         MOSUNNY   66  50  56 SW20G30   30.17F
MARION         MOSUNNY   67  49  52 SW20G36   30.12F
LANCASTER      MOSUNNY   68  51  54 SW23G36   30.19F
ZANESVILLE     MOSUNNY   69  49  48 SW16G24   30.18F
NEW PHILLY     NOT AVBL
$$




USA.gov is the U.S. government's official web portal to all federal, state and local government web resources and services.